Total_Precipitation_Accumulation
0.00 0.00 0.00 0.00 0.00 0.00 0.00 0.00 0.00 0.00 0.00 0.00 0.00 0.00 0.00 0.00 0.00 0.00 0.00 0.00 0.00 0.00 0.00 0.02 0.02 0.00 0.00 0.01 0.01 0.01 0.00 0.00 0.00 0.00 0.00 0.00 0.00 0.00 0.06 0.12 0.08 0.05 0.03 0.01 0.02 0.01 0.01 0.00 0.01
0.00 0.00 0.00 0.00 0.00 0.00 0.00 0.00 0.00 0.00 0.00 0.00 0.00 0.00 0.00 0.00 0.00 0.00 0.00 0.00 0.00 0.00 0.00 0.02 0.02 0.01 0.01 0.01 0.02 0.01 0.00 0.00 0.00 0.00 0.00 0.00 0.01 0.06 0.15 0.13 0.07 0.02 0.00 0.00 0.00 0.00 0.00 0.00 0.01
0.00 0.00 0.00 0.00 0.00 0.00 0.00 0.00 0.00 0.00 0.00 0.00 0.00 0.00 0.00 0.00 0.00 0.00 0.00 0.00 0.00 0.00 0.00 0.02 0.02 0.01 0.01 0.01 0.02 0.01 0.00 0.00 0.00 0.00 0.00 0.01 0.04 0.15 0.16 0.08 0.04 0.01 0.00 0.00 0.00 0.00 0.00 0.00 0.01
0.00 0.00 0.00 0.00 0.00 0.00 0.00 0.00 0.00 0.00 0.00 0.00 0.00 0.00 0.00 0.00 0.00 0.00 0.00 0.00 0.00 0.00 0.01 0.03 0.01 0.01 0.01 0.01 0.01 0.00 0.00 0.00 0.00 0.00 0.01 0.03 0.08 0.17 0.07 0.02 0.00 0.00 0.00 0.00 0.00 0.00 0.00 0.02 0.02
0.00 0.00 0.00 0.00 0.00 0.00 0.00 0.00 0.00 0.00 0.00 0.00 0.00 0.00 0.00 0.00 0.00 0.00 0.00 0.00 0.00 0.00 0.02 0.03 0.02 0.02 0.02 0.01 0.01 0.00 0.00 0.00 0.00 0.01 0.04 0.05 0.12 0.09 0.01 0.00 0.00 0.00 0.00 0.00 0.00 0.01 0.03 0.02 0.04
0.00 0.00 0.00 0.00 0.00 0.00 0.00 0.00 0.00 0.00 0.00 0.00 0.00 0.00 0.00 0.00 0.00 0.00 0.00 0.00 0.00 0.00 0.02 0.04 0.04 0.04 0.06 0.02 0.01 0.01 0.00 0.00 0.01 0.03 0.07 0.09 0.12 0.03 0.00 0.00 0.00 0.00 0.00 0.00 0.03 0.05 0.04 0.03 0.02
0.00 0.00 0.00 0.00 0.00 0.00 0.00 0.00 0.00 0.00 0.00 0.00 0.00 0.00 0.00 0.00 0.00 0.00 0.00 0.00 0.00 0.05 0.03 0.05 0.06 0.10 0.11 0.12 0.06 0.01 0.01 0.00 0.01 0.05 0.11 0.11 0.05 0.01 0.00 0.00 0.00 0.00 0.00 0.02 0.07 0.09 0.05 0.04 0.03
0.00 0.00 0.00 0.00 0.00 0.00 0.00 0.00 0.00 0.00 0.00 0.00 0.00 0.00 0.00 0.00 0.00 0.02 0.02 0.01 0.01 0.12 0.11 0.10 0.13 0.10 0.13 0.12 0.15 0.03 0.02 0.01 0.01 0.05 0.09 0.02 0.00 0.00 0.00 0.00 0.00 0.00 0.00 0.04 0.08 0.08 0.05 0.04 0.03
0.00 0.00 0.00 0.00 0.00 0.00 0.00 0.00 0.00 0.00 0.00 0.00 0.00 0.00 0.00 0.00 0.01 0.06 0.08 0.07 0.07 0.18 0.31 0.37 0.38 0.33 0.18 0.13 0.10 0.13 0.07 0.02 0.02 0.03 0.04 0.01 0.00 0.00 0.00 0.00 0.00 0.00 0.02 0.03 0.04 0.02 0.01 0.01 0.01
0.00 0.00 0.00 0.00 0.00 0.00 0.00 0.00 0.00 0.00 0.00 0.00 0.00 0.00 0.00 0.00 0.02 0.05 0.12 0.12 0.15 0.22 0.31 0.46 0.57 0.70 0.48 0.19 0.06 0.10 0.07 0.06 0.03 0.05 0.04 0.03 0.00 0.00 0.00 0.00 0.00 0.00 0.00 0.01 0.01 0.00 0.00 0.00 0.01
0.00 0.00 0.00 0.00 0.00 0.00 0.00 0.00 0.00 0.00 0.00 0.00 0.00 0.00 0.00 0.00 0.01 0.04 0.13 0.16 0.19 0.20 0.33 0.51 0.66 0.75 0.59 0.19 0.07 0.12 0.10 0.07 0.08 0.03 0.06 0.02 0.00 0.00 0.00 0.01 0.01 0.00 0.00 0.00 0.00 0.00 0.00 0.00 0.00
0.00 0.00 0.00 0.00 0.00 0.00 0.00 0.00 0.00 0.00 0.00 0.00 0.00 0.00 0.00 0.00 0.00 0.03 0.08 0.21 0.25 0.21 0.26 0.42 0.66 0.74 0.84 0.43 0.06 0.06 0.06 0.03 0.04 0.03 0.03 0.01 0.00 0.00 0.00 0.00 0.00 0.00 0.00 0.00 0.00 0.00 0.00 0.00 0.00
0.00 0.00 0.00 0.00 0.00 0.00 0.00 0.00 0.00 0.00 0.00 0.00 0.00 0.00 0.00 0.00 0.00 0.02 0.10 0.21 0.35 0.24 0.32 0.52 0.80 0.78 0.91 1.00 0.26 0.05 0.05 0.03 0.01 0.01 0.01 0.00 0.00 0.00 0.00 0.00 0.00 0.00 0.00 0.00 0.00 0.00 0.00 0.00 0.00
0.00 0.00 0.00 0.00 0.00 0.00 0.00 0.00 0.00 0.00 0.00 0.00 0.00 0.00 0.00 0.00 0.00 0.01 0.08 0.22 0.32 0.49 0.43 0.58 0.74 0.73 0.85 1.08 0.73 0.07 0.03 0.04 0.03 0.01 0.00 0.00 0.00 0.00 0.00 0.00 0.00 0.00 0.00 0.00 0.00 0.00 0.00 0.00 0.00
0.00 0.00 0.00 0.00 0.00 0.00 0.00 0.00 0.01 0.00 0.00 0.00 0.00 0.00 0.00 0.00 0.00 0.00 0.04 0.16 0.38 0.62 0.66 0.52 0.67 0.71 0.90 1.15 1.22 0.60 0.03 0.04 0.03 0.00 0.00 0.00 0.00 0.00 0.00 0.00 0.00 0.00 0.00 0.00 0.00 0.00 0.00 0.00 0.00
0.00 0.00 0.00 0.00 0.00 0.00 0.00 0.03 0.04 0.02 0.02 0.00 0.00 0.00 0.00 0.00 0.00 0.00 0.08 0.15 0.37 0.51 0.76 0.66 0.67 0.73 1.02 1.69 1.79 1.15 0.19 0.09 0.08 0.01 0.00 0.00 0.00 0.00 0.00 0.00 0.00 0.00 0.00 0.00 0.00 0.00 0.00 0.00 0.00
0.00 0.00 0.00 0.00 0.00 0.00 0.01 0.05 0.02 0.01 0.03 0.03 0.00 0.00 0.00 0.00 0.00 0.00 0.05 0.07 0.15 0.37 0.61 0.72 0.72 0.66 1.15 1.51 2.53 1.34 0.55 0.10 0.09 0.04 0.01 0.00 0.00 0.00 0.00 0.00 0.00 0.00 0.00 0.00 0.00 0.00 0.00 0.00 0.00
0.00 0.00 0.00 0.00 0.00 0.00 0.01 0.12 0.03 0.00 0.01 0.02 0.01 0.00 0.00 0.00 0.00 0.00 0.03 0.06 0.13 0.24 0.54 0.73 0.77 0.57 0.91 1.71 2.47 2.15 0.97 0.20 0.08 0.03 0.01 0.00 0.00 0.00 0.00 0.00 0.00 0.00 0.00 0.00 0.00 0.00 0.00 0.00 0.00
0.00 0.00 0.00 0.00 0.00 0.00 0.02 0.06 0.04 0.01 0.01 0.02 0.02 0.01 0.00 0.00 0.00 0.00 0.02 0.04 0.11 0.22 0.45 0.91 1.02 0.96 0.82 1.89 2.30 3.06 1.72 0.35 0.09 0.03 0.00 0.00 0.00 0.00 0.00 0.00 0.00 0.00 0.00 0.00 0.00 0.00 0.00 0.00 0.00
0.00 0.00 0.00 0.00 0.00 0.00 0.07 0.14 0.07 0.02 0.03 0.05 0.06 0.03 0.03 0.01 0.00 0.00 0.03 0.03 0.14 0.16 0.22 0.92 1.25 1.37 1.12 1.30 1.34 2.18 2.39 1.05 0.16 0.04 0.01 0.00 0.00 0.00 0.00 0.00 0.00 0.00 0.00 0.00 0.00 0.00 0.00 0.00 0.00
0.00 0.00 0.00 0.00 0.00 0.00 0.01 0.07 0.04 0.04 0.01 0.01 0.03 0.04 0.04 0.06 0.03 0.01 0.05 0.06 0.12 0.15 0.19 0.37 1.28 1.55 1.56 1.07 1.23 1.22 1.80 1.42 0.41 0.11 0.04 0.01 0.00 0.00 0.00 0.00 0.00 0.00 0.00 0.00 0.00 0.00 0.00 0.00 0.00
0.00 0.00 0.00 0.00 0.00 0.08 0.06 0.18 0.03 0.02 0.01 0.00 0.01 0.02 0.04 0.08 0.05 0.02 0.09 0.10 0.17 0.22 0.14 0.24 1.07 1.70 1.34 1.40 1.20 1.09 1.71 1.61 0.57 0.10 0.08 0.01 0.00 0.00 0.00 0.00 0.00 0.00 0.00 0.00 0.00 0.00 0.00 0.00 0.00
0.00 0.00 0.00 0.00 0.00 0.01 0.06 0.11 0.06 0.00 0.00 0.00 0.00 0.03 0.04 0.11 0.09 0.05 0.08 0.22 0.16 0.33 0.22 0.24 0.57 1.51 1.62 1.17 1.16 1.15 1.18 1.62 1.08 0.19 0.08 0.02 0.00 0.00 0.00 0.00 0.00 0.00 0.00 0.00 0.00 0.00 0.00 0.00 0.00
0.00 0.00 0.00 0.00 0.01 0.05 0.02 0.04 0.04 0.03 0.04 0.02 0.00 0.02 0.05 0.11 0.10 0.05 0.05 0.17 0.28 0.35 0.33 0.21 0.50 0.72 1.50 1.35 1.07 1.13 0.96 1.31 1.32 0.64 0.08 0.03 0.01 0.00 0.00 0.00 0.00 0.00 0.00 0.00 0.00 0.00 0.00 0.00 0.00
0.00 0.00 0.00 0.01 0.01 0.02 0.01 0.02 0.03 0.02 0.02 0.04 0.02 0.01 0.03 0.08 0.12 0.07 0.04 0.09 0.25 0.31 0.35 0.38 0.34 0.53 0.86 1.43 1.16 1.03 1.03 1.11 1.29 1.14 0.28 0.04 0.01 0.00 0.00 0.00 0.00 0.00 0.00 0.00 0.00 0.00 0.00 0.00 0.00
0.00 0.00 0.00 0.00 0.00 0.00 0.00 0.01 0.01 0.00 0.00 0.00 0.00 0.01 0.02 0.04 0.11 0.10 0.06 0.08 0.15 0.28 0.28 0.40 0.50 0.50 0.52 1.00 1.34 1.10 0.87 0.99 1.34 1.33 0.95 0.12 0.01 0.00 0.00 0.00 0.00 0.00 0.00 0.00 0.00 0.00 0.00 0.00 0.00
0.00 0.00 0.00 0.01 0.00 0.00 0.00 0.00 0.00 0.00 0.00 0.00 0.00 0.00 0.02 0.04 0.10 0.11 0.08 0.06 0.12 0.17 0.29 0.27 0.52 0.56 0.55 0.58 1.12 1.21 0.96 0.77 1.04 1.45 1.37 0.67 0.06 0.01 0.00 0.00 0.00 0.00 0.00 0.00 0.00 0.00 0.00 0.00 0.00
0.00 0.00 0.00 0.00 0.00 0.00 0.00 0.00 0.01 0.00 0.00 0.00 0.00 0.00 0.01 0.02 0.08 0.11 0.07 0.06 0.09 0.16 0.24 0.28 0.31 0.52 0.53 0.63 0.77 1.07 1.13 1.00 0.78 0.94 1.47 1.22 0.42 0.03 0.01 0.00 0.00 0.00 0.00 0.00 0.00 0.00 0.00 0.00 0.00
0.00 0.00 0.00 0.00 0.00 0.00 0.00 0.00 0.00 0.00 0.00 0.00 0.00 0.00 0.00 0.02 0.02 0.12 0.10 0.06 0.07 0.11 0.15 0.27 0.28 0.30 0.45 0.53 0.69 0.98 1.02 1.20 1.24 0.82 0.96 1.27 0.93 0.29 0.03 0.01 0.00 0.00 0.00 0.00 0.00 0.00 0.00 0.00 0.00
0.00 0.00 0.00 0.00 0.00 0.00 0.00 0.00 0.00 0.00 0.00 0.00 0.00 0.00 0.00 0.01 0.02 0.05 0.11 0.07 0.04 0.05 0.10 0.17 0.28 0.30 0.35 0.45 0.58 0.81 1.09 0.94 1.28 1.35 1.00 0.94 0.98 0.71 0.23 0.04 0.00 0.00 0.00 0.00 0.00 0.00 0.00 0.00 0.00